[[{"header":{"parameterUnit":"m.s-1","parameterCategory":1,"la1":30.2991,"la2":30.254,"lo1":-89.0895,"lo2":-89.0444,"dy":0.0017,"dx":0.0017,"nx":28,"ny":28,"refTime":"2023-08-17T03:00:00:Z","depth":0,"parameterNumber":2,"parameterNumberName":"U-component_of_WINDS"},"data":[0,0,0,0,0,0,0,0,0,0,0,0,0,0,0,0,0,0,0,0,0,0,0,0,0,0,0,0,0,0,0,0,0,0,0,0,0,0,0,0,0,0,0,0,0,0,0,0,0,0,0,0,0,0,0,0,0,0,1.6349,1.6348,0,1.6282,1.6281,1.628,1.6154,1.6151,1.6149,1.6147,1.6081,1.6082,1.6082,0,0,0,0,0,0,0,0,0,0,0,0,0,1.6369,1.637,1.6349,1.6348,1.6347,1.6282,1.6281,1.628,1.6154,1.6151,1.6148,1.6145,1.6081,1.6082,1.6082,0,0,0,0,0,0,0,0,0,0,0,0,0,1.6338,1.637,1.6349,1.6276,1.6269,1.6282,1.6281,1.628,1.6155,1.6151,1.6147,1.6144,1.6081,1.6081,1.6082,1.6161,0,0,1.6085,1.6085,0,0,0,0,0,0,0,0,1.634,1.6337,1.6288,1.6281,1.6273,1.6222,1.6264,1.624,1.6156,1.6198,1.6147,1.6142,1.6131,1.6128,1.6123,1.6158,1.6156,1.6085,1.6085,1.6086,1.6086,0,0,0,0,0,0,0,1.6342,1.6339,1.6322,1.6287,1.6278,1.6248,1.6239,1.6259,1.6187,1.6194,1.6185,1.6179,1.6127,1.6123,1.6121,1.6155,1.6085,1.6086,1.6086,1.6086,1.6249,1.6253,0,0,0,0,0,0,1.6354,1.6342,1.6324,1.632,1.6298,1.625,1.6241,1.6242,1.6186,1.6174,1.6182,1.6173,1.6123,1.612,1.6118,1.6205,1.6086,1.6087,1.6087,1.6246,1.625,1.6254,0,0,0,0,0,0,1.6355,1.6354,1.6327,1.6328,1.6323,1.6254,1.6257,1.6243,1.6239,1.6176,1.6163,1.6191,1.612,1.6117,1.6151,1.6201,1.6087,1.6088,1.6241,1.6247,1.6252,1.6382,0,0,0,0,0,0,1.6356,1.6355,1.6384,1.633,1.6323,1.6361,1.626,1.6244,1.624,1.6228,1.6182,1.617,1.6117,1.615,1.6152,1.62,1.6088,1.6236,1.6244,1.625,1.6373,1.6391,1.6407,0,0,0,0,0,1.6358,1.6424,1.6386,1.6385,1.6358,1.6364,1.636,1.6296,1.6245,1.6274,1.6233,1.6172,1.6196,1.6155,1.6155,1.6205,1.6233,1.6242,1.625,1.6365,1.6388,1.6407,0,0,0,0,0,0,1.6487,1.6416,1.6373,1.6423,1.6401,1.6343,1.6377,1.6323,1.6315,1.6304,1.6226,1.6217,1.6261,1.6236,1.6192,1.6278,1.6205,1.6214,1.6292,1.6313,1.633,1.6334,1.6089,0,0,0,0,0,1.6521,1.6532,1.6469,1.652,1.6511,1.6446,1.6447,1.6399,1.6373,1.6363,1.6325,1.6302,1.6304,1.6307,1.6306,1.6369,1.6356,1.6403,1.6421,1.6435,1.6444,1.6473,1.6493,1.6283,1.6283,1.6282,0,0,1.6592,1.6555,1.6566,1.6545,1.6522,1.6534,1.6439,1.6457,1.6465,1.6366,1.6395,1.6367,1.6336,1.6385,1.6404,1.6366,1.6499,1.6446,1.6458,1.6458,1.6484,1.6504,1.6522,1.6289,1.6287,1.6287,0,0,1.6728,1.6701,1.6739,1.6718,1.6683,1.664,1.665,1.66,1.6576,1.6604,1.6529,1.6539,1.6545,1.6526,1.6517,1.6645,1.6588,1.6647,1.6737,1.6767,1.6783,1.6798,1.6842,1.6859,1.6656,1.6657,1.6657,0,1.6821,1.6836,1.6767,1.6789,1.6781,1.6691,1.6729,1.6712,1.668,1.6677,1.6635,1.6639,1.6612,1.6654,1.6685,1.6682,1.669,1.6652,1.6787,1.68,1.6813,1.6854,1.6871,1.6664,1.6663,1.6662,1.6662,0,1.6951,1.6963,1.6999,1.6968,1.6965,1.6996,1.6931,1.6936,1.689,1.6851,1.688,1.6845,1.6834,1.6841,1.6797,1.6877,1.6854,1.6801,1.6725,1.6841,1.6878,1.6894,1.6674,1.6672,1.6669,1.6668,0,0,1.7166,1.7096,1.711,1.7094,1.7049,1.7057,1.7084,1.7072,1.7078,1.7059,1.7079,1.7086,1.7035,1.7025,1.6978,1.7005,1.7107,1.6947,1.6945,1.6977,1.7191,1.7231,1.725,1.7069,1.7072,1.7074,1.7193,0,1.729,1.733,1.7268,1.7322,1.7332,1.7246,1.7269,1.7245,1.721,1.7213,1.7174,1.718,1.7114,1.7107,1.713,1.709,1.7149,1.708,1.7086,1.7087,1.7095,1.727,1.7312,1.7426,1.7208,1.721,1.7212,0,1.744,1.7427,1.7482,1.7433,1.7434,1.7456,1.744,1.7445,1.7415,1.7387,1.7376,1.732,1.7342,1.7271,1.73,1.7255,1.7254,1.7235,1.7238,1.7235,1.7156,1.727,1.7461,1.7477,1.7235,1.7233,1.7231,0,1.7589,1.7585,1.7617,1.7607,1.7551,1.7568,1.7545,1.7512,1.7509,1.7495,1.7492,1.7482,1.7477,1.747,1.7413,1.7366,1.7449,1.7373,1.7426,1.7428,1.7446,1.7446,1.7638,1.7449,1.7449,1.7449,1.7448,0,1.7733,1.777,1.7683,1.7702,1.7741,1.767,1.771,1.7679,1.765,1.7662,1.7589,1.7602,1.7526,1.7531,1.7486,1.7517,1.7515,1.7493,1.7481,1.7499,1.7501,1.7496,1.7486,1.7453,1.7452,1.7451,1.745,0,1.7905,1.7848,1.7877,1.7821,1.7808,1.7839,1.7791,1.7807,1.7767,1.7784,1.7784,1.7721,1.7723,1.7665,1.7656,1.7626,1.7676,1.765,1.7686,1.7677,1.7733,1.7728,1.7927,1.7949,1.7748,1.775,1.7752,0,1.8,1.8026,1.7973,1.7975,1.7956,1.7961,1.7957,1.7889,1.7887,1.7855,1.7875,1.7871,1.7864,1.7871,1.7825,1.7818,1.779,1.786,1.7788,1.7805,1.7789,1.7787,1.7789,1.7875,1.7878,1.788,1.7881,0,1.8174,1.8144,1.8141,1.8127,1.8124,1.8111,1.8093,1.8099,1.8025,1.8027,1.8028,1.8022,1.8012,1.8009,1.7992,1.7969,1.7913,1.7905,1.7916,1.7934,1.7953,1.7942,1.7725,1.79,1.7898,1.7897,1.7896,1.7895,1.8308,1.8327,1.8292,1.829,1.8269,1.8254,1.8266,1.8227,1.8226,1.8212,1.8172,1.8179,1.8148,1.812,1.8103,1.8107,1.8072,1.809,1.8094,1.8099,1.8109,1.7954,1.8105,1.8104,1.8103,1.8103,1.8102,0,1.8477,1.845,1.845,1.8426,1.8425,1.8371,1.8348,1.8351,1.8358,1.8334,1.8328,1.8328,1.8324,1.8279,1.8269,1.8282,1.8256,1.8282,1.8279,1.8274,1.8141,1.8131,1.8303,1.8303,1.8303,1.8303,1.8303,1.8303,1.8564,1.8592,1.8559,1.8576,1.8549,1.8554,1.8545,1.8531,1.8511,1.8514,1.851,1.848,1.8447,1.8435,1.8429,1.8415,1.8415,1.8449,1.8427,1.8303,1.8284,1.8265,1.8255,1.845,1.845,1.8559,1.856,1.8561]},{"header":{"parameterUnit":"m.s-1","parameterCategory":1,"la1":30.2991,"la2":30.254,"lo1":-89.0895,"lo2":-89.0444,"dy":0.0017,"dx":0.0017,"nx":28,"ny":28,"refTime":"2023-08-17T03:00:00:Z","depth":0,"parameterNumber":3,"parameterNumberName":"V-component_of_WINDS"},"data":[0,0,0,0,0,0,0,0,0,0,0,0,0,0,0,0,0,0,0,0,0,0,0,0,0,0,0,0,0,0,0,0,0,0,0,0,0,0,0,0,0,0,0,0,0,0,0,0,0,0,0,0,0,0,0,0,0,0,-0.7184,-0.7184,0,-0.7183,-0.7183,-0.7183,-0.7213,-0.7214,-0.7215,-0.7216,-0.7213,-0.7212,-0.7212,0,0,0,0,0,0,0,0,0,0,0,0,0,-0.7212,-0.7211,-0.7184,-0.7184,-0.7184,-0.7183,-0.7183,-0.7183,-0.7213,-0.7214,-0.7215,-0.7216,-0.7214,-0.7213,-0.7212,0,0,0,0,0,0,0,0,0,0,0,0,0,-0.7204,-0.7211,-0.7184,-0.7199,-0.72,-0.7183,-0.7183,-0.7183,-0.7213,-0.7214,-0.7215,-0.7216,-0.7214,-0.7213,-0.7211,-0.7179,0,0,-0.7208,-0.7207,0,0,0,0,0,0,0,0,-0.7204,-0.7203,-0.7197,-0.7198,-0.7199,-0.72,-0.7192,-0.7182,-0.7213,-0.7208,-0.7216,-0.7217,-0.7208,-0.7207,-0.7204,-0.7179,-0.7179,-0.7208,-0.7207,-0.7206,-0.7206,0,0,0,0,0,0,0,-0.7205,-0.7203,-0.7183,-0.7197,-0.7198,-0.7206,-0.7206,-0.719,-0.7201,-0.7209,-0.7211,-0.721,-0.7209,-0.7205,-0.7204,-0.7179,-0.7208,-0.7206,-0.7206,-0.7205,-0.7129,-0.7128,0,0,0,0,0,0,-0.7204,-0.7203,-0.7184,-0.7183,-0.7205,-0.7204,-0.7204,-0.7198,-0.7201,-0.7203,-0.7209,-0.7212,-0.7207,-0.7206,-0.7204,-0.7167,-0.7206,-0.7205,-0.7204,-0.7131,-0.7129,-0.7128,0,0,0,0,0,0,-0.7204,-0.7201,-0.7184,-0.7194,-0.7192,-0.7202,-0.7195,-0.7198,-0.7194,-0.7202,-0.7204,-0.7204,-0.7208,-0.7206,-0.7186,-0.7168,-0.7205,-0.7203,-0.7132,-0.713,-0.7128,-0.7093,0,0,0,0,0,0,-0.7205,-0.7201,-0.7189,-0.7194,-0.7192,-0.7165,-0.7194,-0.7197,-0.7192,-0.7195,-0.7197,-0.7199,-0.7208,-0.7187,-0.7184,-0.7167,-0.7202,-0.7134,-0.7131,-0.7129,-0.7096,-0.709,-0.7085,0,0,0,0,0,-0.7206,-0.7179,-0.7188,-0.7186,-0.7177,-0.7164,-0.7163,-0.7175,-0.7191,-0.7178,-0.7184,-0.7199,-0.717,-0.7185,-0.7182,-0.7164,-0.7135,-0.7132,-0.7129,-0.7098,-0.7091,-0.7085,0,0,0,0,0,0,-0.7171,-0.7179,-0.719,-0.7164,-0.7163,-0.7169,-0.7154,-0.7167,-0.7161,-0.7164,-0.7179,-0.7179,-0.7157,-0.7158,-0.7174,-0.7133,-0.7155,-0.7152,-0.7133,-0.7126,-0.7121,-0.7121,-0.7201,0,0,0,0,0,-0.716,-0.7149,-0.7157,-0.7133,-0.7133,-0.7143,-0.7138,-0.7148,-0.7147,-0.7147,-0.715,-0.7149,-0.714,-0.7133,-0.7125,-0.7097,-0.7098,-0.7083,-0.7077,-0.7073,-0.7069,-0.7055,-0.7049,-0.7118,-0.7118,-0.7118,0,0,-0.7138,-0.7141,-0.7133,-0.7127,-0.7127,-0.7115,-0.7143,-0.7129,-0.712,-0.7144,-0.7126,-0.7128,-0.7128,-0.7103,-0.7093,-0.7104,-0.7051,-0.7069,-0.7066,-0.7065,-0.7052,-0.7045,-0.7039,-0.7116,-0.7117,-0.7117,0,0,-0.7091,-0.7093,-0.7073,-0.7074,-0.7074,-0.7082,-0.7077,-0.7082,-0.7085,-0.7066,-0.7085,-0.7075,-0.7059,-0.7058,-0.7055,-0.7011,-0.7025,-0.7008,-0.698,-0.6966,-0.696,-0.6956,-0.694,-0.6934,-0.7005,-0.7004,-0.7004,0,-0.7063,-0.7046,-0.7061,-0.7047,-0.7044,-0.7066,-0.7047,-0.7047,-0.7044,-0.7041,-0.7054,-0.7036,-0.7037,-0.7013,-0.7002,-0.7,-0.6995,-0.7007,-0.696,-0.6955,-0.6951,-0.6936,-0.693,-0.7002,-0.7003,-0.7003,-0.7003,0,-0.7012,-0.7,-0.6984,-0.6983,-0.6978,-0.6961,-0.6974,-0.6967,-0.6978,-0.6984,-0.6966,-0.6969,-0.6962,-0.6958,-0.6967,-0.6935,-0.6942,-0.6957,-0.698,-0.6942,-0.6928,-0.6923,-0.6999,-0.7,-0.7001,-0.7001,0,0,-0.6941,-0.695,-0.6943,-0.6943,-0.6947,-0.6938,-0.6923,-0.6917,-0.6911,-0.691,-0.6897,-0.6884,-0.6899,-0.6896,-0.6906,-0.6894,-0.6859,-0.6911,-0.6911,-0.6901,-0.6824,-0.6812,-0.6805,-0.6869,-0.6868,-0.6867,-0.6824,0,-0.6895,-0.687,-0.6884,-0.6856,-0.6846,-0.6869,-0.6855,-0.6856,-0.6862,-0.6854,-0.6861,-0.6852,-0.6872,-0.687,-0.6859,-0.6865,-0.6844,-0.6869,-0.6857,-0.6856,-0.6856,-0.6798,-0.6785,-0.6745,-0.6819,-0.6818,-0.6817,0,-0.6838,-0.6835,-0.6807,-0.6814,-0.681,-0.6798,-0.6794,-0.6787,-0.6789,-0.6794,-0.6792,-0.6806,-0.6792,-0.6815,-0.6796,-0.6812,-0.6809,-0.6811,-0.681,-0.6809,-0.6834,-0.6795,-0.6732,-0.6726,-0.6809,-0.681,-0.681,0,-0.6789,-0.6778,-0.676,-0.6759,-0.6767,-0.6758,-0.6761,-0.6764,-0.676,-0.6757,-0.6755,-0.6751,-0.6748,-0.6744,-0.6757,-0.6773,-0.6736,-0.676,-0.674,-0.674,-0.673,-0.673,-0.6665,-0.6729,-0.6729,-0.6729,-0.6729,0,-0.6736,-0.6718,-0.6738,-0.6727,-0.6707,-0.6724,-0.6705,-0.671,-0.6713,-0.6703,-0.6723,-0.6713,-0.673,-0.6723,-0.6733,-0.6715,-0.6714,-0.6718,-0.6721,-0.6716,-0.6715,-0.6713,-0.6716,-0.6728,-0.6728,-0.6728,-0.6729,0,-0.6677,-0.669,-0.6672,-0.6681,-0.6684,-0.6669,-0.6677,-0.6667,-0.6675,-0.6663,-0.6661,-0.6674,-0.6666,-0.6679,-0.6672,-0.6679,-0.6655,-0.6662,-0.6654,-0.6656,-0.6635,-0.6637,-0.6566,-0.6557,-0.6627,-0.6626,-0.6625,0,-0.6642,-0.6629,-0.6637,-0.6633,-0.6635,-0.6627,-0.6623,-0.664,-0.6636,-0.6638,-0.6628,-0.6622,-0.6618,-0.6605,-0.6614,-0.6609,-0.6616,-0.6592,-0.6615,-0.6611,-0.6615,-0.6616,-0.6615,-0.6586,-0.6585,-0.6585,-0.6584,0,-0.6578,-0.6586,-0.6581,-0.6578,-0.6574,-0.6573,-0.6573,-0.6568,-0.6586,-0.6581,-0.6573,-0.657,-0.6565,-0.6558,-0.6556,-0.6559,-0.6574,-0.6577,-0.6572,-0.6566,-0.6562,-0.6564,-0.664,-0.6578,-0.6579,-0.6579,-0.6579,-0.658,-0.653,-0.652,-0.6525,-0.6519,-0.6521,-0.6521,-0.6513,-0.6521,-0.6515,-0.6512,-0.6523,-0.6513,-0.6517,-0.6516,-0.6517,-0.651,-0.6521,-0.6514,-0.6512,-0.651,-0.6506,-0.6564,-0.651,-0.651,-0.651,-0.6511,-0.6511,0,-0.6467,-0.6472,-0.6467,-0.6467,-0.6462,-0.6479,-0.648,-0.6475,-0.6467,-0.6469,-0.6466,-0.6458,-0.6453,-0.6462,-0.6458,-0.6451,-0.6458,-0.6449,-0.6449,-0.645,-0.6497,-0.6501,-0.6444,-0.6444,-0.6444,-0.6444,-0.6444,-0.6444,-0.6434,-0.6418,-0.6426,-0.6411,-0.6416,-0.6408,-0.6407,-0.6408,-0.641,-0.6401,-0.6397,-0.6403,-0.6409,-0.6406,-0.6402,-0.6405,-0.6402,-0.6391,-0.6396,-0.644,-0.6446,-0.6453,-0.6457,-0.6391,-0.6391,-0.635,-0.635,-0.6349]}]]